Regional Weather Roundup
Issued by NWS

Home | Current Version | Previous Version | Graphics & Text | Print | Product List | Glossary On
Versions: 1 2 3 4 5 6 7 8 9 10 11 12 13 14 15 16 17 18 19 20 21 22 23 24 25 26 27 28 29 30 31 32 33 34 35 36 37 38 39 40 41 42 43 44 45 46 47 48 49 50
000
ASUS43 KLOT 290308
RWRIL

ILLINOIS REGIONAL WEATHER ROUNDUP
NATIONAL WEATHER SERVICE CHICAGO/ROMEOVILLE IL
1000 PM CDT WED SEP 28 2016

NOTE: "FAIR" INDICATES FEW OR NO CLOUDS BELOW 12,000 FEET WITH NO
SIGNIFICANT WEATHER AND/OR OBSTRUCTIONS TO VISIBILITY.

* THESE STATIONS ARE NOT UNDER NWS QUALITY CONTROL. THEY ALSO MAY NOT
  REPORT WEATHER SUCH AS PRECIPITATION OR FOG.

ILZ001-002-007-009-015-016-024-290400-
NORTHWEST ILLINOIS

CITY           SKY/WX    TMP DP  RH WIND       PRES   REMARKS
MOLINE         CLEAR     57  49  74 N7        30.18R
STERLING*      CLEAR     54  51  90 N8        30.17R
SAVANNA*       CLEAR     54  50  86 N8        30.19R
$$

ILZ003-004-008-010-011-017-018-290400-
NORTH CENTRAL ILLINOIS

CITY           SKY/WX    TMP DP  RH WIND       PRES   REMARKS
ROCKFORD       CLEAR     55  48  77 N12       30.17S
FREEPORT*      CLEAR     54  49  85 N7        30.19S
ROCHELLE*      MOCLDY    53  49  86 N9        30.14S
DE KALB*       PTCLDY    55  48  79 N12       30.12S
$$

ILZ005-006-012>014-019>023-290400-
NORTHEAST ILLINOIS

CITY           SKY/WX    TMP DP  RH WIND       PRES   REMARKS
CHICAGO-OHARE  RAIN      56  53  90 N14G24    30.07R
CHICAGO-MIDWAY LGT RAIN  57  53  86 N13       30.06R
AURORA         CLOUDY    59  49  69 N15       30.09F
LANSING*       CLOUDY    58  56  94 NE8       30.04R
JOLIET*        CLOUDY    57  54  91 N9        30.07S
WAUKEGAN       CLOUDY    59  55  87 N12G23    30.08F
DUPAGE AIRPORT LGT RAIN  57  51  80 N16       30.08S
KANKAKEE*      RAIN      55  53  93 NW9       30.05S
WHEELING       CLOUDY    56  53  90 N13G22    30.08F
MORRIS*        MOCLDY    56  51  83 N3        30.07S
ROMEOVILLE*    CLOUDY    55  55  99 N13G22    30.07S
NORTHERLY ISL    N/A     60  53  77 NE18        N/A
$$

LMZ740>746-290400-
SOUTHERN LAKE MICHIGAN

STATION/POSITION SKY/WX   TEMP    WIND        PRES    VSBY  WAVE
                          AIR SEA DIR/SP/G                  HT/PER
                          (F)     (DEG/KT/KT) (MB)    (MI)  (FT/S)
SOUTHERN BUOY              65 69   40/ 25/ 29 1017.4R         7/ 6
WILMETTE HARBOR            58 57   40/ 16/ 19   N/A           8/ 7
HARRISON CRIB              63      40/ 27/ 32   N/A
BURNHAM HARBOR             61      30/ 14/ 27   N/A
CALUMET HARBOR             60      20/ 14/ 27 1016.9R
BURNS HARBOR               61      60/ 20/ 26 1016.9R
MICHIGAN CITY              59      20/ 21/ 24   N/A
MICHIGAN CITY 6N           61 66   50/ 17/ 23   N/A           7/ 6
ST. JOSEPH                 61 64   30/ 16/ 19 1016.9          4/ 5
$$

ILZ025>027-034>036-040-047-049-050-058-095>099-290400-
WEST-CENTRAL ILLINOIS

CITY           SKY/WX    TMP DP  RH WIND       PRES   REMARKS
QUINCY         CLEAR     55  49  80 NW7       30.16R
GALESBURG*     CLEAR     53  49  86 N7        30.17R
MACOMB*        CLEAR     55  49  80 N10       30.18R
JACKSONVILLE*  CLOUDY    58  49  71 NW9       30.13S
PITTSFIELD*    PTCLDY    55  49  81 NW7       30.16R
$$

ILZ028>032-037-038-041>044-048-051>054-059>061-290400-
CENTRAL ILLINOIS

CITY           SKY/WX    TMP DP  RH WIND       PRES   REMARKS
PONTIAC        CLOUDY    56  53  90 NW7       30.10S
BLOOMINGTON    CLOUDY    57  50  77 N9        30.10R
DECATUR        LGT RAIN  59  49  69 NW12      30.08S
PEORIA         MOCLDY    56  51  84 N6        30.13R
LACON*         PTCLDY    56  49  79 N7        30.12S
LINCOLN*       MOCLDY    57  51  79 NW3       30.10S
SPRINGFIELD    CLOUDY    57  50  77 NW9       30.12R
TAYLORVILLE    MOCLDY    56  49  75 NW10      30.10S
$$

ILZ033-039-045-046-055>057-062-063-290400-
EAST-CENTRAL ILLINOIS

CITY           SKY/WX    TMP DP  RH WIND       PRES   REMARKS
CHAMPAIGN      PTCLDY    54  49  83 NW8       30.05S
RANTOUL*       CLOUDY    57  52  84 NW9       30.05S
MATTOON        CLOUDY    56  49  77 NW9       30.05S
PARIS*         PTCLDY    54  50  88 CALM      30.05R
$$

ILZ079-100>102-290400-
SOUTHWEST ILLINOIS

CITY           SKY/WX    TMP DP  RH WIND       PRES   REMARKS
BELLEVILLE     CLEAR     55  49  80 NW9       30.10S
CAHOKIA*       CLEAR     58  47  66 NW9       30.12S
SPARTA*        PTCLDY    54  47  80 W5        30.12S
$$

ILZ064>066-069>071-074>076-080>082-084>086-088>090-092>094-290400-
SOUTH-CENTRAL ILLINOIS

CITY           SKY/WX    TMP DP  RH WIND       PRES   REMARKS
CARBONDALE     CLEAR     53  48  83 NW8       30.10R
CAIRO*         CLEAR     54  47  75 N5        30.10R
EFFINGHAM*     MOCLDY    56  51  81 W8        30.08S
MARION         CLEAR     55  48  76 NW3       30.10S
MT. VERNON     CLEAR     52  43  71 CALM      30.09S
CENTRALIA*     CLEAR     56  50  80 NW8       30.08S
SALEM*         PTCLDY    55  49  80 CALM      30.08F
METROPOLIS*    CLEAR     56  47  70 CALM      30.09S
$$

ILZ067-068-072-073-078-083-087-091-290400-
SOUTHEAST ILLINOIS

CITY           SKY/WX    TMP DP  RH WIND       PRES   REMARKS
LAWRENCEVILLE  CLOUDY    57  48  72 NW10      30.04S
FLORA*         MOCLDY    57  50  78 NW7       30.07S
FAIRFIELD*     CLEAR     54  49  82 CALM      30.06S
HARRISBURG*    CLEAR     55  48  79 NW5       30.08S
ROBINSON*      CLOUDY    56  50  80 NW7       30.04F
CARMI*         CLEAR     53  49  86 W7        30.06S
$$

ABBREVIATIONS USED IN REMARKS
   TC - TEMPERATURE IN CELSIUS
  WCI - WIND CHILL INDEX
   HX - HEAT INDEX
  VSB - VISIBILITY
$$





USA.gov is the U.S. government's official web portal to all federal, state and local government web resources and services.